sat.trackr.live / text

‹ back to catalog

STARLINK-36804

NORAD 67799 · 2026-032C

PAYLOAD ACTIVE UNKNOWN

§ Identity

Operator
Country
US
Launch date
2026-02-15
Launch site
AFWTR
Launch vehicle
Mass (kg)
RCS (m²)

Purposes: comms

External: N2YO · Heavens-Above · Gunter

§ Orbital elements

Epoch: 2026-09-19T22:25:25.247136Z

Period
93.91 min
Inclination
97.2865°
Eccentricity
0.0001338
Mean motion
15.33455874 rev/d
Perigee alt
464.6 km
Apogee alt
466.4 km
Semi-major
6,843.6 km
B*
4.1879e-4
RAAN
89.2745°
Arg perigee
73.0449°
Mean anomaly
287.0940°
Rev number
3,472

§ Raw data

STARLINK-368041 67799U 26032C   26262.93431999  .00013474  00000+0  41879-3 0  99962 67799  97.2865  89.2745 0001338  73.0449 287.0940 15.33455874 34725

JSON: /api/v1/satellites/67799 · /tle

For live sub-satellite position, see the globe view (requires WebGL).

§ Visibility from observer

Set your observer location to see the next 7 days of passes ≥ 10°. The values pass through the URL so the page stays shareable.

No JS? Fill the form by hand. The geolocation button needs JavaScript.